NKS1612 KMCO-KFLL

Flight info

Callsign NKS1612
Flight time 0h 42m
Altitude 17000
Route DDANY3 JIPOD CUUDA3
Aircraft A320/M-SDE3FGHIRWXYZ/LB1

Departure

Time 2026-05-05 23:24
Airport Orlando International Airport (KMCO)

Arrival

Time 2026-05-06 00:06
Airport Fort Lauderdale Hollywood International Airport (KFLL)
Time Latitude Longitude Altitude Speed Heading
2026-05-05 22:54 28.43415 -81.31576 87 ft 0 kts 119°
2026-05-05 23:11 28.43417 -81.31581 87 ft 2 kts 119°
2026-05-05 23:11 28.43425 -81.31596 87 ft 2 kts 119°
2026-05-05 23:11 28.43432 -81.31612 87 ft 2 kts 119°
2026-05-05 23:12 28.43440 -81.31626 87 ft 2 kts 119°
2026-05-05 23:12 28.43448 -81.31641 87 ft 2 kts 147°
2026-05-05 23:12 28.43463 -81.31647 87 ft 2 kts 176°
2026-05-05 23:12 28.43477 -81.31644 87 ft 2 kts 207°
2026-05-05 23:13 28.43489 -81.31634 87 ft 2 kts 237°
2026-05-05 23:13 28.43494 -81.31618 87 ft 2 kts 268°
2026-05-05 23:13 28.43494 -81.31609 88 ft 1 kts 284°
2026-05-05 23:13 28.43492 -81.31604 88 ft 0 kts 280°
2026-05-05 23:16 28.43495 -81.31620 87 ft 4 kts 282°
2026-05-05 23:17 28.43504 -81.31677 88 ft 8 kts 277°
2026-05-05 23:17 28.43506 -81.31744 89 ft 8 kts 259°
2026-05-05 23:17 28.43494 -81.31808 90 ft 8 kts 273°
2026-05-05 23:17 28.43536 -81.31844 91 ft 9 kts 358°
2026-05-05 23:18 28.43604 -81.31844 91 ft 10 kts 359°
2026-05-05 23:18 28.43680 -81.31845 91 ft 11 kts 359°
2026-05-05 23:18 28.43761 -81.31847 91 ft 12 kts 359°
2026-05-05 23:18 28.43850 -81.31847 91 ft 13 kts 360°
2026-05-05 23:19 28.43932 -81.31855 91 ft 12 kts 345°
2026-05-05 23:19 28.44015 -81.31885 91 ft 12 kts 342°
2026-05-05 23:19 28.44107 -81.31899 91 ft 13 kts 358°
2026-05-05 23:19 28.44201 -81.31901 91 ft 13 kts 360°
2026-05-05 23:20 28.44298 -81.31902 92 ft 14 kts 359°
2026-05-05 23:20 28.44398 -81.31903 92 ft 14 kts 359°
2026-05-05 23:20 28.44502 -81.31903 91 ft 15 kts
2026-05-05 23:20 28.44612 -81.31903 91 ft 16 kts 355°
2026-05-05 23:21 28.44726 -81.31906 91 ft 16 kts
2026-05-05 23:21 28.44797 -81.31912 91 ft 8 kts 339°
2026-05-05 23:21 28.44825 -81.31970 91 ft 9 kts 270°
2026-05-05 23:21 28.44824 -81.32054 91 ft 11 kts 270°
2026-05-05 23:22 28.44824 -81.32147 91 ft 11 kts 269°
2026-05-05 23:22 28.44817 -81.32207 91 ft 6 kts 248°
2026-05-05 23:22 28.44791 -81.32230 91 ft 0 kts 178°
2026-05-05 23:23 28.44750 -81.32228 91 ft 28 kts 179°
2026-05-05 23:23 28.44304 -81.32223 93 ft 96 kts 179°
2026-05-05 23:23 28.43419 -81.32215 91 ft 153 kts 179°
2026-05-05 23:24 28.42263 -81.32216 431 ft 170 kts 176°
2026-05-05 23:24 28.41103 -81.32244 1007 ft 168 kts 178°
2026-05-05 23:24 28.39913 -81.32290 1446 ft 177 kts 174°
2026-05-05 23:24 28.38739 -81.31881 1753 ft 185 kts 140°
2026-05-05 23:25 28.37811 -81.30781 2107 ft 200 kts 127°
2026-05-05 23:25 28.36885 -81.29478 2388 ft 223 kts 128°
2026-05-05 23:25 28.35852 -81.28084 2817 ft 242 kts 128°
2026-05-05 23:25 28.34937 -81.26417 3276 ft 258 kts 112°
2026-05-05 23:26 28.34443 -81.24431 3946 ft 266 kts 101°
2026-05-05 23:26 28.34098 -81.22356 4686 ft 273 kts 100°
2026-05-05 23:26 28.33755 -81.20221 5425 ft 280 kts 100°
2026-05-05 23:26 28.33403 -81.18053 6172 ft 286 kts 100°
2026-05-05 23:27 28.33031 -81.15814 6964 ft 292 kts 100°
2026-05-05 23:27 28.32649 -81.13558 7787 ft 295 kts 100°
2026-05-05 23:27 28.32261 -81.11279 8623 ft 299 kts 99°
2026-05-05 23:27 28.31862 -81.08942 9355 ft 302 kts 99°
2026-05-05 23:28 28.31465 -81.06615 10150 ft 306 kts 99°
2026-05-05 23:28 28.31060 -81.04225 10689 ft 317 kts 99°
2026-05-05 23:28 28.30638 -81.01748 11205 ft 325 kts 99°
2026-05-05 23:28 28.30202 -80.99201 11837 ft 329 kts 99°
2026-05-05 23:29 28.29763 -80.96652 12440 ft 333 kts 99°
2026-05-05 23:29 28.29323 -80.94101 13033 ft 337 kts 99°
2026-05-05 23:29 28.28872 -80.91487 13598 ft 341 kts 99°
2026-05-05 23:29 28.28411 -80.88818 14173 ft 345 kts 99°
2026-05-05 23:30 28.27836 -80.86198 14691 ft 349 kts 104°
2026-05-05 23:30 28.27045 -80.83578 15235 ft 353 kts 109°
2026-05-05 23:30 28.26129 -80.80996 15772 ft 358 kts 111°
2026-05-05 23:30 28.25178 -80.78384 16306 ft 361 kts 111°
2026-05-05 23:31 28.24209 -80.75726 16773 ft 364 kts 111°
2026-05-05 23:31 28.23246 -80.73068 16976 ft 367 kts 110°
2026-05-05 23:31 28.22277 -80.70383 16981 ft 366 kts 110°
2026-05-05 23:31 28.21317 -80.67721 16985 ft 366 kts 110°
2026-05-05 23:32 28.20389 -80.65041 16980 ft 366 kts 109°
2026-05-05 23:32 28.19511 -80.62369 16980 ft 366 kts 108°
2026-05-05 23:32 28.18629 -80.59661 16981 ft 366 kts 109°
2026-05-05 23:32 28.17753 -80.56980 16979 ft 366 kts 108°
2026-05-05 23:33 28.16853 -80.54247 16981 ft 366 kts 109°
2026-05-05 23:33 28.15973 -80.51578 16983 ft 365 kts 109°
2026-05-05 23:33 28.15085 -80.48892 16984 ft 364 kts 109°
2026-05-05 23:33 28.14187 -80.46188 16986 ft 364 kts 109°
2026-05-05 23:34 28.13343 -80.43640 17019 ft 364 kts 109°
2026-05-05 23:34 28.12448 -80.40944 17004 ft 363 kts 109°
2026-05-05 23:34 28.11564 -80.38287 16994 ft 363 kts 109°
2026-05-05 23:34 28.10679 -80.35622 17006 ft 362 kts 109°
2026-05-05 23:35 28.09556 -80.33034 16975 ft 364 kts 128°
2026-05-05 23:35 28.07665 -80.31204 16974 ft 362 kts 155°
2026-05-05 23:35 28.05323 -80.30215 16995 ft 360 kts 165°
2026-05-05 23:35 28.02920 -80.29349 16989 ft 360 kts 165°
2026-05-05 23:36 28.00533 -80.28473 16990 ft 360 kts 164°
2026-05-05 23:36 27.98148 -80.27576 16988 ft 360 kts 163°
2026-05-05 23:36 27.95759 -80.26662 16984 ft 360 kts 163°
2026-05-05 23:36 27.93402 -80.25751 16985 ft 360 kts 163°
2026-05-05 23:37 27.91038 -80.24834 16984 ft 360 kts 163°
2026-05-05 23:37 27.88662 -80.23908 16980 ft 359 kts 163°
2026-05-05 23:37 27.86288 -80.22984 16974 ft 360 kts 163°
2026-05-05 23:37 27.83942 -80.22070 16947 ft 359 kts 163°
2026-05-05 23:38 27.81568 -80.21146 16974 ft 359 kts 163°
2026-05-05 23:38 27.79197 -80.20221 16991 ft 360 kts 163°
2026-05-05 23:38 27.76817 -80.19295 17015 ft 359 kts 163°
2026-05-05 23:38 27.74476 -80.18383 16981 ft 359 kts 163°
2026-05-05 23:39 27.72105 -80.17461 16970 ft 359 kts 163°
2026-05-05 23:39 27.69723 -80.16534 16985 ft 360 kts 163°
2026-05-05 23:39 27.67385 -80.15627 16985 ft 359 kts 163°
2026-05-05 23:39 27.65009 -80.14704 16980 ft 360 kts 163°
2026-05-05 23:40 27.62628 -80.13780 16982 ft 359 kts 163°
2026-05-05 23:40 27.60280 -80.12844 16984 ft 359 kts 162°
2026-05-05 23:40 27.57910 -80.11865 16984 ft 360 kts 162°
2026-05-05 23:40 27.55548 -80.10882 17000 ft 360 kts 162°
2026-05-05 23:41 27.53199 -80.09909 16975 ft 359 kts 162°
2026-05-05 23:41 27.50855 -80.08939 16969 ft 359 kts 162°
2026-05-05 23:41 27.48515 -80.07975 16966 ft 358 kts 162°
2026-05-05 23:41 27.46186 -80.07017 16972 ft 358 kts 162°
2026-05-05 23:42 27.43840 -80.06051 16983 ft 358 kts 162°
2026-05-05 23:42 27.41501 -80.05090 17000 ft 358 kts 162°
2026-05-05 23:42 27.39151 -80.04131 16994 ft 358 kts 163°
2026-05-05 23:42 27.36782 -80.03313 16971 ft 357 kts 166°
2026-05-05 23:43 27.34357 -80.02563 16992 ft 357 kts 167°
2026-05-05 23:43 27.31958 -80.01836 16985 ft 357 kts 167°
2026-05-05 23:43 27.29552 -80.01105 16981 ft 357 kts 167°
2026-05-05 23:43 27.27155 -80.00375 16982 ft 357 kts 167°
2026-05-05 23:44 27.24779 -79.99597 16976 ft 357 kts 165°
2026-05-05 23:44 27.22423 -79.98752 16972 ft 358 kts 164°
2026-05-05 23:44 27.20034 -79.97887 16980 ft 357 kts 164°
2026-05-05 23:44 27.17660 -79.97025 16975 ft 357 kts 164°
2026-05-05 23:45 27.15298 -79.96172 16974 ft 358 kts 164°
2026-05-05 23:45 27.12948 -79.95324 16971 ft 357 kts 164°
2026-05-05 23:45 27.10556 -79.94462 16977 ft 357 kts 164°
2026-05-05 23:45 27.08204 -79.93613 16986 ft 358 kts 164°
2026-05-05 23:46 27.05833 -79.92715 16980 ft 358 kts 162°
2026-05-05 23:46 27.03496 -79.91775 16975 ft 358 kts 162°
2026-05-05 23:46 27.01147 -79.90825 16960 ft 358 kts 162°
2026-05-05 23:46 26.98789 -79.89871 16971 ft 358 kts 162°
2026-05-05 23:47 26.96453 -79.88924 16819 ft 358 kts 162°
2026-05-05 23:47 26.94113 -79.87979 16580 ft 355 kts 162°
2026-05-05 23:47 26.91789 -79.87042 16344 ft 353 kts 162°
2026-05-05 23:47 26.89492 -79.86117 16096 ft 352 kts 162°
2026-05-05 23:48 26.87169 -79.85181 15848 ft 352 kts 162°
2026-05-05 23:48 26.84882 -79.84260 15620 ft 350 kts 162°
2026-05-05 23:48 26.82573 -79.83330 15379 ft 349 kts 162°
2026-05-05 23:48 26.80287 -79.82411 15130 ft 348 kts 162°
2026-05-05 23:49 26.78007 -79.81495 14892 ft 346 kts 162°
2026-05-05 23:49 26.75754 -79.80590 14662 ft 345 kts 162°
2026-05-05 23:49 26.73513 -79.79689 14433 ft 344 kts 162°
2026-05-05 23:49 26.71242 -79.78854 14185 ft 340 kts 171°
2026-05-05 23:50 26.68912 -79.78767 13854 ft 332 kts 193°
2026-05-05 23:50 26.66704 -79.79493 13477 ft 327 kts 204°
2026-05-05 23:50 26.64579 -79.80402 13067 ft 327 kts 204°
2026-05-05 23:50 26.62452 -79.81316 12631 ft 329 kts 204°
2026-05-05 23:51 26.60328 -79.82209 12211 ft 329 kts 203°
2026-05-05 23:51 26.58175 -79.83097 11786 ft 329 kts 203°
2026-05-05 23:51 26.56021 -79.83977 11329 ft 329 kts 203°
2026-05-05 23:51 26.53918 -79.84919 10944 ft 320 kts 205°
2026-05-05 23:52 26.51891 -79.85867 10545 ft 310 kts 206°
2026-05-05 23:52 26.49934 -79.86790 10120 ft 304 kts 205°
2026-05-05 23:52 26.48009 -79.87698 9929 ft 296 kts 206°
2026-05-05 23:52 26.46112 -79.88592 9541 ft 296 kts 206°
2026-05-05 23:53 26.44225 -79.89481 9165 ft 296 kts 206°
2026-05-05 23:53 26.42300 -79.90386 8780 ft 295 kts 206°
2026-05-05 23:53 26.40444 -79.91258 8398 ft 287 kts 205°
2026-05-05 23:53 26.38637 -79.92133 8024 ft 278 kts 208°
2026-05-05 23:54 26.36944 -79.93133 7856 ft 279 kts 212°
2026-05-05 23:54 26.35234 -79.94230 7881 ft 282 kts 213°
2026-05-05 23:54 26.33531 -79.95328 7904 ft 283 kts 212°
2026-05-05 23:54 26.31823 -79.96427 7926 ft 283 kts 213°
2026-05-05 23:55 26.30125 -79.97519 7945 ft 283 kts 212°
2026-05-05 23:55 26.28400 -79.98626 7964 ft 283 kts 212°
2026-05-05 23:55 26.26698 -79.99719 7982 ft 283 kts 212°
2026-05-05 23:55 26.24995 -80.00813 7991 ft 283 kts 212°
2026-05-05 23:56 26.23278 -80.01917 7993 ft 284 kts 212°
2026-05-05 23:56 26.21561 -80.03019 7993 ft 284 kts 212°
2026-05-05 23:56 26.19848 -80.04121 7995 ft 284 kts 213°
2026-05-05 23:56 26.18296 -80.05453 7984 ft 280 kts 232°
2026-05-05 23:57 26.17356 -80.07306 7995 ft 277 kts 252°
2026-05-05 23:57 26.16752 -80.09329 7845 ft 273 kts 253°
2026-05-05 23:57 26.16175 -80.11333 7652 ft 269 kts 253°
2026-05-05 23:57 26.15597 -80.13311 7464 ft 270 kts 254°
2026-05-05 23:58 26.15148 -80.15331 7226 ft 271 kts 262°
2026-05-05 23:58 26.14999 -80.17425 6898 ft 269 kts 270°
2026-05-05 23:58 26.15001 -80.19479 6558 ft 266 kts 270°
2026-05-05 23:58 26.15022 -80.21538 6210 ft 265 kts 270°
2026-05-05 23:59 26.15044 -80.23572 5856 ft 265 kts 270°
2026-05-05 23:59 26.15064 -80.25615 5494 ft 263 kts 270°
2026-05-05 23:59 26.15078 -80.27627 5133 ft 260 kts 271°
2026-05-05 23:59 26.15085 -80.29622 4770 ft 257 kts 271°
2026-05-06 00:00 26.15086 -80.31593 4409 ft 254 kts 271°
2026-05-06 00:00 26.15083 -80.33542 4050 ft 252 kts 271°
2026-05-06 00:00 26.15059 -80.35513 3688 ft 254 kts 266°
2026-05-06 00:00 26.14494 -80.37350 3341 ft 257 kts 230°
2026-05-06 00:01 26.13088 -80.38419 3311 ft 242 kts 196°
2026-05-06 00:01 26.11455 -80.38537 3295 ft 228 kts 165°
2026-05-06 00:01 26.10099 -80.37810 3283 ft 212 kts 136°
2026-05-06 00:01 26.09244 -80.36578 3366 ft 194 kts 118°
2026-05-06 00:02 26.08584 -80.35263 3340 ft 193 kts 116°
2026-05-06 00:02 26.08067 -80.33901 3075 ft 191 kts 103°
2026-05-06 00:02 26.07836 -80.32446 2729 ft 191 kts 93°
2026-05-06 00:02 26.07773 -80.30995 2438 ft 187 kts 88°
2026-05-06 00:03 26.07768 -80.29578 2205 ft 183 kts 87°
2026-05-06 00:03 26.07768 -80.28170 1974 ft 180 kts 87°
2026-05-06 00:03 26.07761 -80.26817 1741 ft 169 kts 87°
2026-05-06 00:03 26.07751 -80.25564 1548 ft 157 kts 87°
2026-05-06 00:04 26.07742 -80.24375 1345 ft 150 kts 87°
2026-05-06 00:04 26.07733 -80.23250 1146 ft 141 kts 87°
2026-05-06 00:04 26.07728 -80.22195 967 ft 135 kts 87°
2026-05-06 00:04 26.07721 -80.21162 813 ft 134 kts 87°
2026-05-06 00:05 26.07712 -80.19078 466 ft 134 kts 87°
2026-05-06 00:05 26.07709 -80.18055 289 ft 133 kts 87°
2026-05-06 00:05 26.07700 -80.17024 134 ft 133 kts 87°
2026-05-06 00:06 26.07691 -80.15988 18 ft 130 kts 87°
2026-05-06 00:06 26.07688 -80.15190 10 ft 61 kts 90°
2026-05-06 00:06 26.07688 -80.14893 9 ft 35 kts 93°
2026-05-06 00:06 26.07649 -80.14648 10 ft 17 kts 110°
2026-05-06 00:07 26.07605 -80.14590 9 ft 10 kts 172°
2026-05-06 00:07 26.07560 -80.14647 9 ft 11 kts 269°
2026-05-06 00:07 26.07559 -80.14728 9 ft 8 kts 257°
2026-05-06 00:07 26.07505 -80.14758 9 ft 9 kts 205°
2026-05-06 00:08 26.07453 -80.14806 9 ft 9 kts 226°
2026-05-06 00:08 26.07390 -80.14853 9 ft 14 kts 183°
2026-05-06 00:08 26.07262 -80.14853 10 ft 21 kts 182°
2026-05-06 00:08 26.07115 -80.14854 9 ft 15 kts 180°
2026-05-06 00:09 26.07047 -80.14819 9 ft 9 kts 136°
2026-05-06 00:09 26.07023 -80.14793 10 ft 3 kts 135°
2026-05-06 00:09 26.07005 -80.14774 9 ft 3 kts 137°
2026-05-06 00:09 26.06989 -80.14758 9 ft 0 kts 136°
2026-05-06 00:10 26.06989 -80.14757 9 ft 0 kts 134°
2026-05-06 00:10 26.07002 -80.14741 9 ft 4 kts 351°
2026-05-06 00:10 26.07036 -80.14744 9 ft 4 kts 26°
2026-05-06 00:10 26.07052 -80.14719 9 ft 0 kts 56°
2026-05-06 00:11 26.07054 -80.14714 9 ft 0 kts 56°